Wind_Speed
34 36 39 39 40 44 48 52 53 55 56 57 59 61 61 60 60 59 58 60 60 61 61 58 56 57 58 59 59 58 58 61 60
35 37 39 42 45 48 50 51 54 57 59 61 62 63 63 64 63 63 63 64 64 65 65 65 65 62 61 61 61 60 59 57 58
39 42 45 47 50 54 56 59 60 62 64 66 67 69 69 68 68 68 68 68 67 68 68 68 68 67 66 67 66 65 62 61 62
46 49 52 55 56 61 63 65 66 68 70 72 74 75 74 74 73 73 72 71 70 70 70 70 69 66 65 67 67 67 67 66 62
52 55 59 63 65 70 68 68 70 71 73 77 79 80 80 80 79 79 78 76 74 74 73 72 70 66 65 66 65 65 65 64 64
58 62 66 69 74 77 74 72 72 74 75 76 79 81 84 85 83 83 82 81 79 79 77 77 71 68 67 65 63 62 62 63 64
65 69 71 75 80 77 74 75 76 76 76 75 71 70 72 75 81 83 84 82 81 78 78 80 75 72 70 67 66 63 63 62 63
73 76 78 82 81 77 77 76 74 70 66 63 62 61 61 63 66 73 77 80 80 80 79 78 76 74 73 70 66 62 61 62 62
77 80 82 85 81 78 74 70 66 63 61 59 57 58 58 57 57 60 65 67 69 72 74 77 75 72 71 69 65 65 64 63 62
80 83 88 84 78 68 64 62 59 55 53 53 53 53 54 54 54 55 56 57 58 60 64 66 65 66 61 62 59 59 57 55 53
82 87 88 79 66 60 57 55 53 51 48 48 48 50 50 51 51 49 50 52 52 53 56 54 53 53 51 50 48 45 45 44 45
84 88 81 69 59 54 51 50 49 47 45 45 45 45 46 46 46 46 48 50 48 49 49 42 46 45 42 41 40 41 40 39 37
87 83 71 60 53 49 47 47 46 43 42 43 44 41 43 43 43 43 45 47 46 47 43 41 41 40 40 40 38 38 34 32 42
84 72 61 52 48 47 48 48 47 43 41 42 42 42 40 43 43 42 44 45 45 46 40 39 40 40 40 38 36 31 26 37 38
74 62 54 47 45 46 47 47 48 46 43 42 39 39 39 39 41 41 42 42 43 44 40 41 41 41 40 38 33 28 28 32 39
65 56 47 45 44 45 46 46 47 46 46 42 40 36 36 36 36 37 38 40 42 42 40 41 40 41 41 36 31 29 28 31 35
56 49 44 43 44 47 48 46 45 47 48 45 43 35 33 32 32 33 35 38 40 40 41 41 41 43 41 34 31 29 26 25 32
50 44 43 43 44 46 47 46 45 43 47 46 44 36 29 28 28 30 33 35 39 41 41 40 43 44 38 34 31 31 24 23 29
47 44 44 44 46 47 46 47 46 44 42 44 42 34 26 22 25 28 31 34 39 40 40 41 45 44 39 35 34 33 30 26 28
47 45 45 47 49 49 48 48 47 45 43 40 39 34 29 25 22 26 30 33 38 39 42 42 47 45 39 37 35 34 31 28 27
Wind_Direction
296 293 291 289 286 284 282 282 279 277 274 273 273 272 271 267 266 264 262 261 259 259 258 258 258 258 259 260 261 262 263 263 265
296 294 291 288 285 285 282 279 278 276 274 272 270 269 267 267 265 263 262 260 258 258 258 259 257 256 258 260 262 264 264 265 267
297 293 292 290 288 286 284 281 278 276 272 271 270 268 267 266 266 265 264 263 261 260 260 259 259 259 260 261 262 263 265 266 268
299 298 297 296 294 292 286 282 280 276 272 271 270 269 269 267 266 266 266 264 264 263 262 261 261 261 260 260 261 261 263 264 264
304 300 298 297 298 298 293 287 282 278 275 272 270 270 269 268 267 265 266 265 264 264 264 264 264 263 262 262 262 264 262 263 263
304 304 302 300 301 301 297 291 286 282 278 275 270 267 266 265 264 264 264 264 264 264 264 265 265 265 265 265 266 267 264 265 264
305 305 305 303 304 301 296 290 287 284 282 281 278 274 268 265 261 260 260 260 262 264 263 263 265 266 265 266 266 267 265 266 265
306 306 306 307 307 302 298 294 292 289 285 283 280 277 272 267 262 259 258 257 258 260 261 262 263 263 262 265 267 268 268 268 266
307 308 310 310 308 305 301 298 294 290 286 283 282 276 271 268 262 260 259 259 257 256 258 258 259 260 262 264 264 265 266 266 264
310 312 313 312 310 307 303 299 295 291 289 286 282 278 270 267 264 259 257 258 254 254 255 257 256 260 260 261 261 263 265 264 264
313 314 314 312 310 308 305 303 299 294 290 288 284 276 270 265 264 260 257 256 253 251 253 256 253 254 256 255 257 255 256 255 258
315 316 315 313 312 311 312 311 306 302 296 293 288 280 269 264 263 259 252 250 250 249 253 248 246 246 246 246 243 247 252 255 262
318 317 315 313 313 316 320 319 314 311 306 300 293 285 271 265 262 258 252 249 246 245 246 240 239 238 237 235 237 245 251 265 270
318 316 314 313 316 322 324 325 323 322 316 306 295 287 276 265 261 257 249 245 243 242 240 234 234 232 231 232 238 244 258 269 278
317 315 313 312 317 320 325 327 328 327 325 319 306 287 277 267 260 254 245 243 240 237 232 232 230 227 227 232 237 243 265 274 283
316 313 311 313 317 321 323 326 329 331 332 331 319 296 276 266 257 251 243 240 237 235 227 229 230 223 226 231 235 244 261 278 290
312 312 311 312 315 318 322 323 329 332 334 337 336 310 282 263 255 248 240 237 235 230 226 228 228 222 225 230 236 244 267 287 291
310 311 308 309 312 316 319 323 327 331 335 338 341 328 293 266 256 246 239 235 231 230 226 227 225 221 224 229 235 243 260 277 283
311 310 306 304 308 311 314 317 321 326 331 337 340 338 310 278 266 252 241 235 232 232 227 227 222 220 223 227 236 247 260 264 283
306 308 307 306 307 309 310 312 316 319 323 329 337 338 323 298 280 265 249 241 235 233 230 227 220 222 225 229 240 248 257 262 286
Height
10820 10818 10816 10812 10809 10806 10803 10800 10798 10794 10792 10790 10789 10787 10786 10784 10784 10784 10784 10784 10784 10784 10785 10786 10785 10784 10784 10785 10786 10787 10787 10788 10789
10812 10810 10807 10804 10801 10797 10793 10790 10786 10783 10780 10777 10775 10773 10771 10770 10770 10770 10770 10769 10770 10770 10772 10772 10772 10773 10774 10775 10775 10776 10778 10778 10778
10805 10801 10798 10794 10790 10786 10782 10777 10773 10769 10766 10763 10761 10759 10758 10757 10756 10755 10755 10755 10755 10757 10756 10757 10759 10761 10764 10765 10764 10765 10766 10768 10769
10796 10792 10787 10783 10778 10773 10767 10762 10758 10753 10749 10746 10744 10743 10743 10742 10741 10740 10740 10740 10742 10742 10741 10743 10744 10748 10751 10750 10750 10751 10754 10755 10757
10786 10782 10777 10770 10764 10758 10751 10745 10740 10736 10731 10728 10725 10722 10723 10722 10723 10723 10722 10724 10725 10727 10727 10729 10731 10733 10734 10735 10737 10738 10740 10742 10743
10776 10770 10764 10756 10749 10740 10733 10727 10721 10715 10711 10707 10704 10702 10702 10702 10702 10702 10703 10705 10707 10709 10713 10713 10716 10718 10721 10722 10724 10725 10726 10727 10728
10764 10757 10749 10741 10732 10722 10714 10707 10699 10693 10687 10683 10680 10679 10679 10680 10680 10681 10683 10686 10688 10693 10697 10697 10702 10704 10705 10708 10710 10709 10710 10711 10713
10750 10741 10733 10724 10713 10703 10693 10685 10678 10672 10667 10664 10661 10659 10658 10658 10660 10662 10663 10668 10673 10675 10678 10681 10686 10688 10689 10692 10695 10698 10698 10698 10698
10736 10726 10716 10705 10694 10683 10673 10665 10659 10654 10650 10647 10644 10641 10639 10639 10641 10644 10647 10651 10655 10658 10660 10663 10667 10671 10676 10679 10680 10682 10681 10682 10683
10721 10710 10698 10687 10676 10666 10658 10650 10644 10639 10635 10631 10628 10625 10624 10624 10625 10628 10632 10635 10638 10642 10643 10649 10654 10658 10661 10663 10665 10667 10669 10671 10672
10706 10695 10683 10671 10662 10653 10645 10637 10630 10625 10622 10618 10614 10611 10610 10610 10611 10615 10618 10620 10624 10628 10631 10638 10642 10645 10648 10651 10654 10656 10658 10660 10661
10692 10680 10668 10658 10649 10641 10634 10626 10618 10614 10610 10605 10601 10599 10597 10597 10600 10602 10604 10606 10612 10616 10621 10626 10629 10633 10637 10641 10643 10646 10648 10651 10652
10678 10666 10656 10647 10639 10633 10626 10617 10609 10604 10599 10594 10588 10587 10586 10586 10589 10590 10592 10595 10601 10605 10610 10615 10619 10624 10627 10630 10634 10637 10641 10642 10637
10667 10656 10647 10639 10632 10625 10619 10610 10601 10596 10591 10584 10579 10575 10574 10575 10576 10579 10581 10585 10591 10595 10602 10606 10610 10614 10617 10621 10626 10629 10633 10630 10631
10656 10647 10640 10633 10626 10620 10613 10605 10595 10588 10583 10576 10570 10564 10562 10563 10564 10567 10570 10576 10582 10587 10593 10597 10601 10605 10609 10614 10618 10622 10623 10623 10620
10647 10639 10632 10626 10620 10614 10608 10601 10592 10583 10576 10569 10561 10554 10551 10552 10554 10556 10562 10569 10573 10579 10585 10589 10593 10597 10601 10606 10609 10613 10613 10614 10608
10639 10632 10625 10620 10614 10608 10602 10596 10589 10578 10570 10563 10556 10546 10542 10543 10546 10549 10555 10560 10566 10571 10577 10581 10586 10589 10593 10598 10602 10604 10605 10603 10599
10631 10624 10619 10614 10608 10602 10596 10590 10585 10578 10567 10559 10552 10543 10537 10539 10541 10543 10548 10553 10558 10563 10570 10573 10577 10580 10586 10592 10593 10595 10597 10595 10592
10622 10617 10612 10607 10602 10597 10591 10585 10580 10574 10568 10559 10551 10544 10538 10538 10540 10541 10543 10547 10551 10556 10562 10565 10568 10573 10579 10583 10584 10586 10588 10588 10585
10614 10610 10606 10601 10596 10591 10585 10580 10575 10570 10565 10560 10552 10546 10542 10539 10539 10539 10540 10543 10545 10548 10553 10556 10561 10565 10571 10573 10575 10577 10579 10580 10578